RH
67 68 68 67 68 69 69 69 69 67 66 64 62 61 60 59 59 58 57 56 55 55 56 57 56 56 56 56 56 56 56 56 60 66 71 73 75 75 76 82 91 95
68 68 68 68 69 70 69 69 69 67 65 62 60 59 60 60 59 57 56 55 54 55 55 56 55 53 53 55 54 53 54 54 56 58 59 60 65 66 65 70 80 89
69 69 69 68 69 69 70 69 68 65 61 59 59 59 59 59 58 56 54 54 53 54 54 53 52 50 49 49 50 50 50 49 52 55 55 56 57 58 60 62 64 71
71 71 69 69 69 69 70 68 65 62 61 60 59 59 58 56 55 54 52 52 51 50 49 46 43 42 42 42 41 41 42 43 45 48 49 50 51 51 54 57 58 60
73 73 71 70 70 70 68 65 63 62 61 61 59 58 56 54 53 52 50 48 46 42 39 35 33 31 31 31 32 33 34 36 38 39 40 41 43 45 47 50 53 54
74 73 72 72 71 68 65 63 63 63 61 59 57 55 54 52 50 48 44 40 36 32 28 25 24 24 23 24 24 24 26 29 29 29 30 32 34 36 38 41 43 44
74 72 72 71 68 64 63 63 62 61 58 56 54 53 51 48 44 39 34 30 26 23 22 21 21 20 20 21 21 21 21 22 23 22 23 24 25 26 28 30 31 32
73 72 70 67 65 64 63 62 60 57 55 53 51 48 45 39 34 29 26 23 22 21 21 21 21 21 21 21 21 21 21 21 22 22 22 22 22 23 24 24 25 25
72 70 67 65 64 64 62 59 57 54 52 49 44 40 36 30 26 24 23 23 22 23 23 22 23 22 22 22 22 22 23 23 23 23 23 24 23 24 25 25 26 26
69 67 66 65 64 61 58 56 53 50 46 41 35 31 28 25 25 24 25 25 24 24 23 23 23 23 23 23 24 25 25 25 26 26 27 28 28 28 28 29 30 30
68 68 66 63 60 57 55 52 48 43 38 32 29 27 26 26 27 27 26 25 24 23 23 22 22 23 24 25 25 26 27 27 28 29 30 31 32 33 33 33 33 34
69 67 63 60 57 54 51 46 41 36 31 30 29 29 30 30 29 28 26 25 24 23 22 23 23 24 24 26 26 26 27 28 29 31 34 36 38 39 39 40 41 41
66 63 59 57 54 49 45 40 36 35 34 35 36 34 33 31 29 29 27 26 25 25 24 24 25 26 26 26 26 27 27 28 30 34 38 41 43 46 50 52 54 56
62 60 56 53 49 45 43 41 41 43 43 42 41 38 35 33 31 29 28 27 26 26 26 27 27 27 27 26 27 28 28 30 36 43 47 50 51 54 61 66 71 75
59 56 53 50 48 47 48 49 50 51 49 47 44 40 38 35 32 30 28 27 27 27 27 27 28 27 26 27 28 27 29 33 38 43 47 50 53 59 67 73 77 82
58 55 53 52 52 54 56 57 57 56 53 49 46 42 38 36 35 33 30 28 28 28 28 27 28 27 27 28 28 32 45 54 52 49 48 49 55 65 76 84 86 88
59 57 57 57 60 62 64 64 62 59 54 49 47 44 42 42 40 34 30 29 28 28 29 29 29 28 28 29 28 37 60 79 81 79 78 74 73 79 87 95 98 98
61 61 63 66 70 71 70 68 64 58 54 51 50 47 46 46 39 31 28 28 28 29 29 29 29 29 28 29 29 33 52 80 95 98 100 98 96 97 98 98 100 98
66 69 72 75 77 76 73 68 63 59 55 52 51 50 47 41 32 28 28 29 29 29 29 29 29 29 28 29 30 28 41 75 99 99 94 94 91 89 85 81 86 91
75 77 79 81 80 77 72 67 62 58 54 53 53 49 42 33 28 28 29 29 29 29 29 29 28 29 29 28 31 29 35 66 92 85 71 66 60 56 54 53 62 73
82 83 82 83 81 76 71 66 61 57 55 55 51 42 34 29 29 30 29 29 30 28 29 30 28 30 31 29 33 32 33 60 85 75 56 48 41 38 38 40 45 55
85 84 83 82 79 74 69 65 61 58 56 51 43 34 31 30 30 30 30 30 30 30 30 31 31 32 33 32 34 32 35 59 78 68 51 44 39 36 37 39 42 48
84 82 81 80 77 73 68 63 60 57 52 44 36 32 32 32 32 32 32 32 32 32 32 32 33 35 34 33 35 34 38 55 66 64 60 54 44 38 39 41 42 45
83 80 78 77 74 69 65 61 59 54 45 37 33 33 33 33 34 35 34 34 33 33 34 34 34 35 35 34 35 36 39 47 59 70 72 61 48 43 43 45 47 48
82 79 76 74 70 65 61 58 53 46 38 34 34 35 36 37 37 36 35 34 34 34 35 35 34 34 35 35 36 38 40 47 63 80 80 68 60 59 59 59 59 59
83 80 75 69 64 60 57 52 45 38 35 35 37 38 39 38 37 36 35 36 36 36 35 34 33 33 35 36 37 39 41 47 62 76 79 74 70 69 71 72 71 72
Wind_Speed
32 32 31 31 28 26 26 26 25 24 23 22 22 21 20 19 17 16 15 14 13 13 12 11 11 11 11 10 10 11 11 12 12 10 9 9 9 8 8 8 6 5
32 32 32 31 29 28 27 26 26 26 25 24 23 22 20 19 17 16 15 14 13 13 12 12 11 10 10 9 9 10 10 10 10 10 9 9 8 7 7 7 6 5
31 32 32 31 31 29 28 27 27 26 25 24 23 22 20 19 17 16 15 15 14 14 13 12 11 10 10 9 8 8 9 9 9 8 7 7 7 6 6 5 4 4
29 30 31 31 30 29 28 27 27 26 25 24 23 21 20 18 17 16 16 15 15 14 13 12 11 10 9 8 8 7 8 7 8 7 6 6 5 5 4 4 3 3
26 28 29 29 29 28 28 27 27 26 25 24 23 21 19 18 17 16 15 15 14 13 12 11 10 10 9 8 7 7 7 6 6 6 5 4 4 4 3 3 3 3
26 27 28 28 28 28 27 27 27 26 25 24 22 20 18 17 16 15 14 14 13 12 11 10 9 9 8 7 7 6 6 5 5 4 4 4 3 3 3 3 3 3
28 28 28 28 28 27 27 27 26 25 24 23 21 19 17 16 15 14 13 12 11 11 10 9 8 7 7 6 5 5 4 4 4 3 4 3 4 4 4 4 4 5
30 29 29 28 28 27 26 26 25 25 24 22 21 19 16 15 14 13 12 11 10 9 8 8 7 6 5 5 4 4 4 3 3 3 4 4 4 5 5 6 6 6
31 30 30 29 28 27 26 26 25 24 23 21 20 18 16 14 13 11 11 9 8 8 7 6 6 5 4 4 4 3 3 3 3 4 4 4 5 6 6 7 7 7
32 31 30 29 28 27 26 26 24 23 21 20 19 17 15 13 12 10 9 8 7 6 6 5 4 4 3 3 3 3 3 3 4 4 5 5 6 7 7 8 8 9
32 31 30 30 29 28 26 25 24 22 20 19 18 16 14 12 11 9 8 7 6 5 5 4 3 3 2 2 3 3 3 4 4 5 6 6 7 7 8 9 9 10
32 31 30 29 28 27 26 24 23 22 20 18 16 14 13 11 9 8 7 6 5 4 3 3 2 2 2 2 3 3 3 4 5 5 6 7 7 8 9 9 10 10
32 31 30 29 28 26 25 24 23 21 19 17 15 13 12 10 9 7 6 5 4 3 2 2 1 1 1 2 2 3 4 5 5 6 7 7 8 8 9 10 10 11
32 31 29 28 26 25 24 23 21 19 18 16 14 12 10 9 7 6 4 4 3 2 1 1 0 1 2 2 3 3 4 5 6 6 7 8 9 10 10 11 11 11
32 30 28 27 25 24 23 21 20 18 16 15 13 11 9 7 6 4 3 3 2 1 0 1 1 2 2 3 3 4 5 6 7 8 9 9 10 11 11 11 11 11
31 29 28 26 24 23 21 20 18 17 15 13 11 9 7 6 4 3 2 2 1 1 2 2 2 2 3 3 4 4 6 8 9 10 10 11 12 12 12 12 12 12
30 28 27 25 23 22 21 19 18 16 14 12 10 8 6 5 3 2 2 2 2 3 3 2 2 3 3 3 4 4 5 7 8 9 9 10 11 12 11 10 9 10
29 28 26 24 22 21 20 18 17 15 13 11 9 7 6 4 3 2 3 3 3 3 2 2 3 3 3 3 4 4 5 6 6 7 7 7 7 8 9 9 9 9
28 27 26 24 22 21 19 18 16 14 12 10 8 6 5 4 3 3 4 4 4 3 3 3 4 4 4 4 4 5 5 5 6 7 7 8 9 10 12 14 14 13
28 26 26 24 22 21 19 17 15 13 11 9 7 5 4 4 4 5 5 5 4 4 4 4 5 5 5 5 5 5 5 5 7 10 11 12 14 15 16 18 17 16
28 27 26 25 23 21 19 17 15 12 10 8 6 5 5 5 6 6 6 5 5 5 5 5 6 6 6 6 6 6 6 7 8 11 14 15 16 17 18 18 18 17
29 28 27 25 23 21 18 16 14 11 9 7 6 6 6 7 7 7 6 6 6 6 6 5 6 7 7 7 7 7 7 7 10 13 15 16 18 18 18 19 19 19
29 28 27 25 22 20 18 15 12 10 8 7 7 8 9 8 8 7 7 6 6 7 7 6 6 6 8 8 7 7 7 8 11 12 14 16 18 19 19 20 20 20
28 27 25 23 21 19 16 14 11 9 8 8 9 10 10 9 8 7 7 6 6 7 8 8 7 7 8 8 8 8 8 9 11 11 13 17 19 20 20 20 21 21
26 24 23 21 20 17 15 12 10 9 9 10 11 10 9 9 8 7 6 7 8 8 9 9 9 8 9 9 8 8 8 9 10 10 12 16 18 19 19 19 20 21
24 22 21 19 18 15 13 11 10 11 11 11 11 10 9 8 7 7 8 8 9 9 10 10 11 10 9 9 9 8 8 9 10 11 12 15 17 17 17 18 18 18
Wind_Direction
166 163 160 157 156 155 153 151 149 147 145 142 140 137 136 133 131 130 125 122 120 117 115 113 110 107 103 100 98 96 94 92 93 92 91 92 91 87 85 88 86 84
167 165 162 160 157 157 156 154 153 151 148 146 143 140 138 136 134 132 129 126 123 120 119 116 113 110 105 101 98 96 94 91 91 91 91 92 91 85 81 83 80 81
166 164 162 161 159 159 158 156 155 153 150 147 145 142 139 137 135 133 131 129 126 123 121 118 113 107 102 99 96 93 93 92 91 90 88 87 87 82 77 73 69 77
164 163 162 161 161 160 158 156 153 151 149 146 143 140 137 136 136 135 133 131 128 126 122 118 114 107 102 98 94 90 88 86 86 84 81 79 75 69 67 60 49 57
160 160 159 158 159 158 156 154 151 148 146 142 138 136 135 136 136 136 134 131 129 126 122 118 113 108 104 99 94 89 84 80 77 75 72 70 65 55 52 44 27 21
159 158 157 157 156 156 154 151 148 145 141 137 135 134 134 135 136 135 133 130 127 124 120 116 111 107 102 96 91 85 81 75 66 60 51 48 42 32 24 18 4 351
159 158 157 157 156 155 153 149 146 142 138 135 133 132 134 136 136 134 130 127 124 120 116 112 108 106 99 92 85 75 69 61 48 36 25 18 7 1 357 352 348 340
158 157 156 156 155 154 151 148 144 139 136 135 133 133 135 137 136 132 127 123 120 115 111 107 100 96 89 81 72 63 50 36 25 12 1 354 344 342 339 337 337 333
156 155 155 155 154 152 149 145 141 137 136 136 135 134 136 136 133 129 123 118 115 109 103 99 92 86 79 68 59 51 35 16 5 351 342 339 334 330 330 331 330 327
154 153 154 154 152 149 146 143 138 135 136 136 134 135 136 134 130 125 120 115 111 107 99 94 88 81 74 63 52 38 19 1 347 340 333 331 329 325 325 325 325 323
152 152 153 152 150 147 144 141 137 135 135 135 135 136 134 133 129 123 120 118 115 111 102 96 89 78 69 57 44 25 7 348 336 332 328 325 323 322 322 322 322 322
151 151 152 151 149 147 143 140 138 136 136 135 136 137 134 133 132 128 126 123 119 114 105 94 81 64 46 33 23 6 348 335 326 322 319 317 317 317 318 319 320 320
151 151 152 150 148 145 142 140 138 137 138 137 137 139 138 137 137 133 131 128 122 115 102 90 76 39 15 8 2 347 332 322 315 310 307 307 309 310 313 316 316 315
151 151 150 148 146 144 142 140 139 139 139 140 140 141 141 140 140 140 138 134 125 109 101 84 357 342 347 352 345 331 320 310 303 298 300 302 303 305 307 308 307 306
150 149 148 146 145 144 142 140 140 141 141 141 141 142 143 143 145 146 143 134 119 107 164 288 308 323 333 339 334 323 311 302 296 293 294 295 297 299 300 300 299 296
149 148 146 147 147 145 144 143 143 144 143 143 143 144 147 151 153 156 153 148 168 218 241 263 288 310 326 330 322 312 302 297 296 296 295 293 294 295 295 295 294 289
148 147 147 148 149 149 147 147 148 147 145 145 147 148 154 163 171 179 187 199 217 226 237 261 289 310 323 318 301 285 279 284 290 292 291 291 295 297 294 289 284 280
150 149 150 151 152 152 151 151 151 149 148 150 154 158 168 184 201 215 217 225 232 235 252 279 299 311 313 303 289 267 265 276 281 280 282 286 290 291 286 282 280 279
153 152 152 154 156 156 154 154 153 152 154 159 164 173 190 207 221 230 232 240 248 258 281 298 304 309 309 303 292 275 268 277 279 278 282 286 285 283 283 283 284 284
155 155 156 158 160 160 158 158 158 158 161 167 176 192 213 224 231 237 243 253 266 278 293 302 304 307 308 304 297 288 284 288 286 285 288 291 290 289 289 288 286 285
158 159 161 162 163 163 162 162 162 163 167 177 194 214 227 231 236 243 250 262 276 286 294 302 306 308 307 303 301 300 299 297 290 288 291 294 294 294 293 292 290 288
163 164 165 166 166 165 164 164 165 169 178 193 212 226 231 233 237 245 256 266 277 287 296 305 305 302 302 304 307 306 301 293 288 289 292 293 293 294 294 292 290 288
167 168 167 167 167 167 166 166 169 177 191 207 218 223 227 231 237 246 256 265 277 289 296 300 299 298 302 306 308 304 294 284 283 285 286 287 289 292 292 290 288 286
171 171 170 169 169 168 167 169 176 188 202 212 216 220 226 233 239 248 259 274 286 291 292 295 300 304 305 306 305 298 287 280 279 278 278 282 288 292 292 290 288 287
173 174 172 170 169 169 170 174 184 197 208 212 215 221 228 235 244 257 273 283 287 287 289 297 306 310 307 302 300 293 281 275 274 271 272 279 285 288 289 288 287 287
174 175 174 172 171 171 174 182 194 203 208 211 215 221 230 242 258 271 276 277 280 288 296 303 307 308 304 299 293 285 275 270 267 264 267 276 282 283 283 283 283 283